Raton, NM

7:36 AM MDT on August 24, 2016 (GMT -0600)
Raton Municipal-Crews

Weather History for KRTN - July, 2013

Change the Weather History Date:

Wednesday, July 24, 2013

  Actual Average (KTAD) Record (KTAD)
Temperature  
Mean Temperature 74 °F 74 °F  
Max Temperature 87 °F 88 °F 100 °F (2003)
Min Temperature 63 °F 59 °F 52 °F (1950)
Cooling Degree Days 8 9  
Month to date cooling degree days 210  
Growing Degree Days 24 (Base 50)    
Moisture  
Dew Point 54 °F    
Average Humidity 51    
Maximum Humidity 65    
Minimum Humidity 32    
Precipitation  
Precipitation 0.00 in 0.08 in 0.92 in (1958)
Sea Level Pressure  
Sea Level Pressure 29.97 in    
Wind  
Wind Speed 9 mph (ESE)    
Max Wind Speed 28 mph    
Max Gust Speed 40 mph    
Visibility 10 miles    
Events      
T = Trace of Precipitation, MM = Missing Value Source: NWS Daily Summary

Daily Weather History Graph

Daily Weather History Graph

Search for Another Location

Airport or City:

Trip Planner

Search our weather history database for the weather conditions in past years. The results will help you decide how hot, cold, wet, or windy it might be!

Date:

Astronomy

Jul. 24, 2013 Rise Set
Actual Time 5:57 AM MDT 8:10 PM MDT
Civil Twilight 5:28 AM MDT 8:40 PM MDT
Nautical Twilight 4:52 AM MDT 9:15 PM MDT
Astronomical Twilight 4:13 AM MDT 9:54 PM MDT
Moon 9:24 PM MDT 8:15 AM MDT
Length of Visible Light 15h 11m
Length of Day
14h 13m
Waning Gibbous, 94% of the Moon is Illuminated
Jul 24
Waning Gibbous
Jul 29
Last Quarter
Aug 6
New
Aug 14
First Quarter
Aug 20
Full

Hourly Weather History & Observations

Time (MDT) Temp. Heat Index Dew Point Humidity Pressure Visibility Wind Dir Wind Speed Gust Speed Precip Events Conditions
12:53 AM 69.1 °F - 50.0 °F 51% 29.93 in 10.0 mi NNE 6.9 mph - N/A   Clear
1:53 AM 69.1 °F - 48.0 °F 47% 29.90 in 10.0 mi NNE 5.8 mph - N/A   Clear
2:53 AM 64.0 °F - 50.0 °F 60% 29.90 in 10.0 mi ENE 6.9 mph - N/A   Clear
3:53 AM 63.0 °F - 50.0 °F 63% 29.89 in 10.0 mi ENE 5.8 mph - N/A   Clear
4:53 AM 64.9 °F - 50.0 °F 58% 29.89 in 10.0 mi NE 8.1 mph - N/A   Clear
5:53 AM 66.0 °F - 51.1 °F 59% 29.91 in 10.0 mi NE 8.1 mph - N/A   Clear
6:53 AM 66.0 °F - 54.0 °F 65% 29.95 in 10.0 mi East 6.9 mph - N/A   Clear
7:53 AM 71.1 °F - 57.9 °F 63% 29.96 in 10.0 mi Variable 4.6 mph - N/A   Clear
8:53 AM 73.0 °F - 57.9 °F 59% 30.00 in 10.0 mi ENE 13.8 mph - N/A   Clear
9:53 AM 73.9 °F - 57.9 °F 57% 30.01 in 10.0 mi East 9.2 mph - N/A   Clear
10:53 AM 75.9 °F - 57.9 °F 54% 30.02 in 10.0 mi East 5.8 mph 17.3 mph N/A   Clear
11:53 AM 79.0 °F - 57.0 °F 47% 30.03 in 10.0 mi East 9.2 mph - N/A   Clear
12:53 PM 81.0 °F 81.0 °F 57.0 °F 44% 30.00 in 10.0 mi ENE 5.8 mph - N/A   Partly Cloudy
1:53 PM 82.0 °F 81.4 °F 55.0 °F 39% 29.97 in 10.0 mi Calm Calm - N/A   Scattered Clouds
2:53 PM 82.9 °F 82.0 °F 55.0 °F 38% 29.95 in 10.0 mi SSE 10.4 mph 21.9 mph N/A   Partly Cloudy
3:53 PM 82.9 °F 81.8 °F 53.1 °F 36% 29.94 in 10.0 mi South 5.8 mph 18.4 mph N/A   Partly Cloudy
4:53 PM 84.0 °F - 51.1 °F 32% 29.93 in 10.0 mi South 17.3 mph - N/A   Clear
5:53 PM 84.0 °F - 52.0 °F 33% 29.91 in 10.0 mi SSE 20.7 mph - N/A   Partly Cloudy
6:53 PM 82.0 °F - 52.0 °F 35% 29.91 in 10.0 mi South 17.3 mph - N/A   Clear
7:53 PM 79.0 °F - 55.9 °F 45% 29.92 in 10.0 mi SE 19.6 mph - N/A   Mostly Cloudy
8:15 PM 73.4 °F - 53.6 °F 50% 30.24 in 10.0 mi South 27.6 mph 40.3 mph N/A   Scattered Clouds
8:53 PM 70.0 °F - 54.0 °F 57% 29.98 in 10.0 mi SSW 16.1 mph 29.9 mph 0.00 in   Partly Cloudy
9:53 PM 70.0 °F - 53.1 °F 55% 30.03 in 10.0 mi South 10.4 mph - N/A   Mostly Cloudy
10:53 PM 69.1 °F - 55.0 °F 61% 30.03 in 10.0 mi NE 5.8 mph - N/A   Overcast
11:53 PM 66.9 °F - 53.1 °F 61% 30.03 in 10.0 mi SSE 13.8 mph 25.3 mph N/A   Overcast